Hourly Weather Roundup
Issued by NWS Central Illinois

Home | Current Version | Previous Version | Text Only | Print | Product List | Glossary On
Versions: 1 2 3 4 5 6 7 8 9 10 11 12 13 14 15 16 17 18 19 20 21 22 23 24 25 26 27 28 29 30 31 32 33 34 35 36 37 38 39 40 41 42 43 44 45 46 47 48 49 50
000
NZUS43 KILX 052210
HWRILX

AREA WEATHER ROUNDUP
NATIONAL WEATHER SERVICE, LINCOLN IL
400 PM CST MON DEC 05 2016


CITY           SKY/WX    TMP DP  RH WIND       PRES   REMARKS
BLOOMINGTON    CLOUDY    33  32  96 SE10      29.96S FOG     WCI  25
CHAMPAIGN      CLOUDY    39  35  86 E9        29.96S WCI  33
DANVILLE       PTCLDY    39  35  85 E3        29.96S
DECATUR        PTCLDY    39  35  86 SE7       29.96S WCI  34
EFFINGHAM      PTCLDY    42  37  85 E8        29.97F
FLORA          PTCLDY    41  36  81 E8        29.97F
GALESBURG      CLOUDY    34  33  95 SE8       29.91F WCI  27
JACKSONVILLE   MOCLDY    39  36  91 SE8       29.92F WCI  33
LACON          CLOUDY    32  32  98 SE7       29.94F FOG     WCI  26
LAWRENCEVILLE  PTCLDY    42  35  76 SE7       29.99F
LITCHFIELD     PTCLDY    40  36  84 SE8       29.91F WCI  35
$$


CITY           SKY/WX    TMP DP  RH WIND       PRES   REMARKS
LINCOLN        CLOUDY    38  36  91 E6        29.94F FOG     WCI  34
MACOMB         CLOUDY    37  36  95 SE10      29.93F WCI  30
MATTOON        PTCLDY    40  33  76 SE12      29.95F WCI  33
MT CARMEL AP   CLOUDY    41  35  77 E7        29.98S
OLNEY-NOBLE AP CLOUDY    39  36  87 SE7       29.97F WCI  34
PARIS          PTCLDY    42  36  78 SE5       29.99S
PEORIA         CLOUDY    35  34  96 SE8       29.94F WCI  29
PONTIAC        CLOUDY    33  33 100 SE8       29.97F WCI  26
RANTOUL        PTCLDY    38  36  92 E7        29.97S WCI  33
SPRINGFIELD    MOCLDY    40  36  86 SE9       29.94F WCI  34
TAYLORVILLE    CLOUDY    40  36  84 SE7       29.94F
$$

...REGIONAL REPORTS...


CITY           SKY/WX    TMP DP  RH WIND       PRES   REMARKS
CHICAGO O`HARE CLOUDY    32  30  92 S8        29.99F FOG     WCI  25
KANKAKEE       CLOUDY    33  32  95 CALM      30.01F
MOLINE         CLOUDY    35  32  88 SE10      29.93R FOG     WCI  27
MOUNT STERLING CLOUDY    38  37  93 SE7       29.90S WCI  33
MOUNT VERNON   NOT AVBL
PITTSFIELD     PTCLDY    41  38  89 E7        29.90F
QUINCY         CLOUDY    39  36  89 SE12      29.89S FOG     WCI  32
ROCKFORD       CLOUDY    33  31  92 S9        29.98F WCI  25
$$


CITY           SKY/WX    TMP DP  RH WIND       PRES   REMARKS
BURLINGTON     CLOUDY    36  35  96 SE5       29.89F WCI  32
CEDAR RAPIDS   CLOUDY    33  33 100 SE9       29.86S FOG     WCI  25
DES MOINES     PTCLDY    47  34  60 S17       29.75F
KIRKSVILLE     CLOUDY    40  39  97 E6        29.83F FOG
OTTUMWA        CLEAR     42  35  76 SE15      29.83S WCI  34
ST LOUIS       MOCLDY    44  34  67 E10       29.89F
$$


CITY           SKY/WX    TMP DP  RH WIND       PRES   REMARKS
TERRE HAUTE    PTCLDY    43  33  68 SE7       29.99R
EVANSVILLE     CLOUDY    43  34  70 E6        29.98F
INDIANAPOLIS   MOCLDY    41  33  73 E10       30.00S WCI  35
LAFAYETTE      PTCLDY    38  34  85 E7        29.99F WCI  33
MADISON        CLOUDY    32  30  92 S12       29.94R FOG     WCI  23
MILWAUKEE      CLOUDY    33  31  92 S9        29.98S FOG     WCI  25
$$






USA.gov is the U.S. government's official web portal to all federal, state and local government web resources and services.